Home > Weather > Thousand Oaks > Past weeks

Flag for USA Weather for the Past 2 Weeks in Thousand Oaks, California, USA

Now
69 °F

Sunny.


Feels Like: 69 °F
Forecast: 50 / 70 °F
Wind: 13 mph from West

Location: Camarillo Airport

Current Time: Apr 30, 2016 at 1:58:27 PM

Latest Report: Apr 30, 2016 at 12:55 PM


Visibility: 10 mi

Pressure: 29.84 "Hg

Humidity: 45%

Dew Point: 47 °F

Location of Thousand OaksLocation

Historic Weather in Thousand Oaks — Graph

°F

Thousand Oaks Temperature Yesterday

Maximum temperature yesterday: 67 °F (at 12:55 PM)
Minimum temperature yesterday: 50 °F (at 5:55 AM)
Average temperature yesterday: 58 °F

High & Low Weather Summary for the Past Weeks

 TemperatureHumidityPressure
High91 °F (Apr 17, 12:55 PM)86% (Apr 29, 4:55 AM)30.08 "Hg (Apr 29, 4:55 AM)
Low43 °F (Apr 26, 4:55 AM)8% (Apr 17, 11:55 AM)29.71 "Hg (Apr 27, 7:55 PM)
Average62 °F55%29.95 "Hg
* Reported Apr 15 11:55 AM — Apr 30 11:55 AM, Thousand Oaks, Weather by CustomWeather, © 2016

Note: Actual official high and low records may vary slightly from our data, if they occured in-between our weather recording intervals... More about our weather records

Advertising

Thousand Oaks Weather History for the Previous 24 Hours

Scroll right to see more
 ConditionsComfort  
Time TempWeatherWind HumidityBarometerVisibility
11:55 AM
Sat, Apr 30
66 °FSunny.10 mph54%29.85 "Hg10 mi
10:55 AM64 °FSunny.7 mph61%29.86 "Hg10 mi
9:55 AM64 °FSunny.7 mph58%29.86 "Hg10 mi
8:55 AM60 °FSunny.6 mph67%29.86 "Hg9 mi
7:55 AM55 °FScattered clouds.No wind77%29.87 "Hg9 mi
6:55 AM54 °FPassing clouds.3 mph77%29.85 "Hg9 mi
5:55 AM54 °FOvercast.No wind80%29.85 "Hg10 mi
4:55 AM51 °FClear.No wind83%29.85 "Hg10 mi
3:55 AM50 °FClear.5 mph86%29.85 "Hg9 mi
2:55 AM52 °FClear.7 mph80%29.86 "Hg10 mi
1:55 AM51 °FClear.5 mph83%29.87 "Hg10 mi
12:55 AM53 °FPassing clouds.5 mph80%29.88 "Hg10 mi
11:55 PM
Fri, Apr 29
54 °FClear.6 mph80%29.90 "Hg9 mi
10:55 PM56 °FClear.5 mph77%29.92 "Hg10 mi
9:55 PM56 °FPassing clouds.5 mph77%29.93 "Hg9 mi
8:55 PM56 °FOvercast.5 mph77%29.93 "Hg9 mi
7:55 PM57 °FScattered clouds.7 mph74%29.94 "Hg9 mi
6:55 PM59 °FSunny.12 mph69%29.94 "Hg9 mi
5:55 PM62 °FSunny.9 mph60%29.95 "Hg10 mi
4:55 PM63 °FPassing clouds.10 mph58%29.97 "Hg10 mi
3:55 PM65 °FSunny.10 mph54%29.98 "Hg10 mi
2:55 PM65 °FSunny.12 mph56%30.01 "Hg10 mi
1:55 PM66 °FPassing clouds.12 mph54%30.02 "Hg10 mi
Weather by CustomWeather, © 2016

See weather overviewHow to use our weather pages